FENGYUN 1C DEB, 41018

Orbit data source: Space-Track

FENGYUN 1C DEB, 41018 is space debris in SSO originally from a launch on Mon, 10 May 1999 UTC launched from the Taiyaun Space Center, China (TSC). Fengyun 1C debris stems from the Chinese weather satellite Fengyun-1C, which was intentionally destroyed by a Chinese anti-satellite missile in 2007. This event dramatically increased the amount of space debris, with thousands of trackable fragments posing hazards to satellites and human spaceflight. The Fengyun 1C debris cloud has become a focal point in discussions about space sustainability and the need for international regulations to prevent the creation of new debris.

Loading next visibility...
Identifier
41018, 1999-025EXY
Orbit
SSO
Country
Flag of CNCN / PRC
Related business
Manufacturer
Unknown
Mission
Spacecraft
Bus & Motor
Unknown
Mass
Unknown
Launch date (UTC)
1999-05-10 (27 years ago)
Launch vehicle
Unknown
Launch site
Taiyaun Space Center, China (TSC)
Object type
Payload
Rocket body
Debris
Shape & HBR
Unknown shape, 0.1 m
Radar Cross Section
Small (<0.1 m²)

Expand to show TLE details & history
Last TLE update: 21 hours ago

TLE from 21 hours ago
0 FENGYUN 1C DEB
1 41018U 99025EXY 26255.12076311  .00001311  00000-0  15113-2 0  9999
2 41018  99.9437 205.6232 0304873 162.1169 199.0980 13.53104577918716
Epoch: 2026-09-12T02:53Z
TLE epoch observation values (Epoch: 2026-09-12T02:53:53.932Z)
Latitude
0.00001°
Longitude
171.01416°
Altitude
1,278.705 km
Speed
7.112 km/s
True Right ascension
13h 42m 29s
True Declination
0° 00' 00"
Sunlit
Object was in daylight at epoch
Visualization orbit readout
Latitude
Unknown
Longitude
Unknown
Altitude
Unknown
Speed
Unknown
Apparent Right ascension
Unknown
Apparent Declination
Unknown
Sunlit
N/A
Visualization observer readout
Local Sidereal Time
16:03:18
Azimuth
Unknown
Elevation
Unknown
Doppler factor
Unknown
Orbital elements
Apogee altitude
1,284.877 km
Perigee altitude
831.451 km
Semi-major axis
7,436.301 km
Eccentricity
0.03049
Inclination
99.9437°
RAAN
205.6232°
Arg. of periapsis
162.1169°
True anomaly
197.9948°
Mean anomaly
199.098°
Eccentric anomaly
198.54251°
Mean motion
3.3846 °/min
Orbital period
106.36 mins
BSTAR
0.0015113
Loading maneuver chart data...
Computing Atmospheric mass density...

Documentation

Showing up to 5 results
|